Location: Unspecified
(0.0000°N, 0.0000°E)
Time: 18:38:34
(UTC+00:00)

MetOp-A - Pass Details

Date: 10 August 2021
Orbit: 819 x 821 km, 98.5° (Epoch: 26 September)

Event Time Altitude Azimuth Distance (km) Brightness Sun altitude
Exits shadow 20:50:16 23° 273° (W) 1,665 6.2 -39.5°
Drops below altitude 10° 20:53:36 10° 311° (NW) 2,409 7.2 -40.3°
Sets 20:56:21 0° 324° (NW) 3,338 7.9 -40.9°
